IBUKIYAMA Weather Reports


Display with metric or nautical units.
time (UTC)temp
F
wind
direction
speed
MPH
gust
MPH
rain 1hr
in
rain 24hr
in
rain mn
in
humidity
%
barometer
mb
20260508023032 54 295 8.0 13.0 0.00 0.00 0.00 100 869.5
20260508022033 54 309 4.0 15.0 0.00 0.00 0.00 100 869.7
20260508021017 54 359 5.0 15.0 0.00 0.00 0.00 100 869.6
20260508020043 54 308 3.0 12.0 0.00 0.00 0.00 100 869.8
20260508015046 54 304 13.0 19.0 0.00 0.00 0.00 100 869.9
20260508014021 54 359 10.0 19.0 0.00 0.00 0.00 100 869.7
20260508013025 55 303 7.0 13.0 0.00 0.00 0.00 100 869.7
20260508012026 54 298 4.0 12.0 0.00 0.00 0.00 100 869.8
20260508011029 55 289 6.0 14.0 0.00 0.00 0.00 100 869.9
20260508010044 54 293 9.0 16.0 0.00 0.00 0.00 100 870.1
20260508005034 55 359 6.0 11.0 0.00 0.00 0.00 100 870.2
20260508004104 55 326 7.0 15.0 0.00 0.00 0.00 100 870.2
20260508003017 54 359 9.0 16.0 0.00 0.00 0.00 100 870.5
20260508002040 55 276 4.0 11.0 0.00 0.00 0.00 100 870.6
20260508001022 55 359 5.0 11.0 0.00 0.00 0.00 100 870.4
20260508000029 55 303 7.0 15.0 0.00 0.00 0.00 100 870.3
20260507235026 55 305 6.0 12.0 0.00 0.00 0.00 100 870.4
20260507234030 55 359 6.0 12.0 0.00 0.00 0.00 100 870.7
20260507233034 55 359 6.0 15.0 0.00 0.00 0.00 100 870.5
20260507232039 55 279 7.0 13.0 0.00 0.00 0.00 100 870.5
20260507231034 55 297 4.0 12.0 0.00 0.00 0.00 100 870.3
20260507230016 54 359 6.0 11.0 0.00 0.00 0.00 100 870.4
20260507225017 54 288 5.0 13.0 0.00 0.00 0.00 100 870.5
20260507224041 55 359 6.0 11.0 0.00 0.00 0.00 100 870.8
20260507223016 55 359 3.0 12.0 0.00 0.00 0.00 100 871.0
20260507222021 55 279 5.0 12.0 0.00 0.00 0.00 100 871.0
20260507221026 54 359 5.0 12.0 0.00 0.00 0.00 100 871.0
20260507220021 55 359 6.0 10.0 0.00 0.00 0.00 100 871.0
20260507215026 54 301 3.0 12.0 0.00 0.00 0.00 100 871.2
20260507214028 55 359 5.0 11.0 0.00 0.00 0.00 100 871.2
20260507213050 55 274 7.0 15.0 0.00 0.00 0.00 100 871.2
20260507212033 55 359 5.0 13.0 0.00 0.00 0.00 100 871.1
20260507211037 55 272 6.0 12.0 0.00 0.00 0.00 100 871.0
20260507210033 55 359 5.0 13.0 0.00 0.00 0.00 100 871.0
20260507205015 55 295 6.0 13.0 0.00 0.00 0.00 100 871.2
20260507204040 55 359 6.0 12.0 0.00 0.00 0.00 100 871.0
20260507203015 55 359 7.0 12.0 0.00 0.00 0.00 100 871.1
20260507202019 54 296 4.0 12.0 0.00 0.00 0.00 100 871.1
20260507201042 54 0.0 12.0 0.00 0.00 0.00 100 871.0
20260507200025 54 272 6.0 12.0 0.00 0.00 0.00 100 871.2
20260507195025 54 280 4.0 10.0 0.00 0.00 0.00 100 871.1
20260507194016 54 359 5.0 12.0 0.00 0.00 0.00 100 871.1
20260507193018 54 291 6.0 13.0 0.00 0.00 0.00 100 871.2
20260507192018 54 330 4.0 13.0 0.00 0.00 0.00 100 871.2
20260507191020 54 359 6.0 12.0 0.00 0.00 0.00 100 871.3
20260507190045 54 0.0 12.0 0.00 0.00 0.00 100 871.3
20260507185018 54 293 7.0 14.0 0.00 0.00 0.00 100 871.3
20260507184019 54 271 5.0 13.0 0.00 0.00 0.00 100 871.4
20260507183025 54 359 5.0 14.0 0.00 0.00 0.00 100 871.5
20260507182019 54 279 6.0 12.0 0.00 0.00 0.00 100 871.6
20260507181021 54 326 2.0 11.0 0.00 0.00 0.00 100 871.5
20260507180022 54 270 4.0 11.0 0.00 0.00 0.00 100 871.6
20260507175025 54 359 6.0 9.0 0.00 0.00 0.00 100 871.5
20260507174047 54 359 5.0 13.0 0.00 0.00 0.00 100 871.4
20260507173028 54 265 6.0 12.0 0.00 0.00 0.00 100 871.6
20260507172022 54 359 5.0 12.0 0.00 0.00 0.00 100 871.6
20260507171026 54 359 3.0 9.0 0.00 0.00 0.00 100 871.6
20260507170027 54 359 3.0 9.0 0.00 0.00 0.00 100 871.8
20260507165029 54 359 4.0 10.0 0.00 0.00 0.00 100 871.8
20260507164021 54 285 5.0 11.0 0.00 0.00 0.00 100 871.9
20260507163020 54 285 6.0 11.0 0.00 0.00 0.00 100 872.2
20260507162020 54 359 4.0 13.0 0.00 0.00 0.00 100 872.2
20260507161019 54 359 5.0 12.0 0.00 0.00 0.00 100 872.3
20260507160040 54 359 2.0 6.0 0.00 0.00 0.00 100 872.5
20260507155020 54 310 3.0 7.0 0.00 0.00 0.00 100 872.4
20260507154042 54 359 2.0 5.0 0.00 0.00 0.00 100 872.6
20260507153016 54 30 2.0 5.0 0.00 0.00 0.00 100 872.6
20260507152018 54 359 1.0 6.0 0.00 0.00 0.00 100 872.6
20260507151041 54 296 2.0 6.0 0.00 0.00 0.00 100 872.7
20260507150018 54 359 3.0 9.0 0.00 0.00 0.00 100 872.7
20260507145040 54 359 3.0 9.0 0.00 0.00 0.00 100 872.7
20260507144023 54 359 5.0 11.0 0.00 0.00 0.00 100 872.7
20260507143015 54 299 6.0 13.0 0.00 0.00 0.00 100 873.1
20260507142018 54 281 6.0 11.0 0.00 0.00 0.00 100 873.2
20260507141022 54 359 7.0 13.0 0.00 0.00 0.00 100 873.3
20260507140028 54 359 8.0 13.0 0.00 0.00 0.00 99 873.3
20260507135023 54 359 7.0 14.0 0.00 0.00 0.00 99 873.4
20260507134029 54 359 5.0 9.0 0.00 0.00 0.00 96 873.4
20260507133034 54 276 3.0 10.0 0.00 0.00 0.00 91 873.5
20260507132039 55 359 5.0 11.0 0.00 0.00 0.00 89 873.5
20260507131016 55 359 3.0 9.0 0.00 0.00 0.00 93 873.6
20260507130020 55 359 5.0 9.0 0.00 0.00 0.00 91 873.7
20260507125024 55 359 5.0 10.0 0.00 0.00 0.00 93 873.7
20260507124051 55 359 4.0 8.0 0.00 0.00 0.00 93 873.8
20260507123027 55 359 4.0 11.0 0.00 0.00 0.00 93 873.9
20260507122031 55 359 3.0 6.0 0.00 0.00 0.00 93 873.8
20260507121015 56 359 3.0 6.0 0.00 0.00 0.00 91 873.9
20260507120041 56 283 1.0 6.0 0.00 0.00 0.00 90 874.0
20260507115019 56 359 3.0 6.0 0.00 0.00 0.00 89 874.0
20260507114044 56 272 3.0 6.0 0.00 0.00 0.00 88 873.9
20260507113028 57 298 3.0 6.0 0.00 0.00 0.00 88 873.9
20260507112032 57 306 3.0 7.0 0.00 0.00 0.00 87 873.7
20260507111037 57 359 2.0 5.0 0.00 0.00 0.00 89 873.7
20260507110035 58 291 1.0 3.0 0.00 0.00 0.00 90 873.5
20260507105019 58 359 0.0 7.0 0.00 0.00 0.00 90 873.4
20260507104044 58 359 2.0 6.0 0.00 0.00 0.00 90 873.4
20260507103030 58 317 0.0 4.0 0.00 0.00 0.00 89 873.5
20260507102027 58 359 1.0 4.0 0.00 0.00 0.00 88 873.6
20260507101031 58 359 1.0 4.0 0.00 0.00 0.00 88 873.4